1320710426021,179.310
1320710486021,179.458
1320710546021,179.222
1320710606021,179.875
1320710666021,179.833
1320710726021,179.675
1320710786021,179.604
1320710846021,179.975
1320710906021,179.606
1320710966021,179.779
1320711026021,179.799
1320711086021,179.564
1320711146021,179.619
1320711206021,179.672
1320711266021,179.675
1320711326021,179.337
1320711386021,179.349
1320711446021,179.398
1320711506021,179.563
1320711566021,179.196
1320711626021,179.685
1320711686021,179.451
1320711746021,179.594
1320711806021,179.268
1320711866021,179.401
1320711926021,179.260
1320711986021,179.537
1320712046021,179.742
1320712106021,179.085
1320712166021,179.232
1320712226021,179.546
1320712286021,179.794
1320712346021,179.611
1320712406021,179.498
1320712466021,179.693
1320712526021,179.901
1320712586021,180.312
1320712646021,180.043
1320712706021,179.599
1320712766021,179.614
1320712826021,179.670
1320712886021,179.817
1320712946021,179.835
1320713006021,179.556
1320713066021,179.492
1320713126021,179.883
1320713186021,179.681
1320713246021,179.662
1320713306021,179.693
1320713366021,179.506
1320713426021,179.367
1320713486021,179.640
1320713546021,179.591
1320713606021,179.638
1320713666021,179.714
1320713726021,179.367
1320713786021,179.327
1320713846021,179.564
1320713906021,179.420
1320713966021,179.553
1320714026031,179.712
1320714086031,179.460
1320714146031,179.043
1320714206031,179.316
1320714266031,179.373
1320714326031,179.117
1320714386031,179.130
1320714446031,179.217
1320714506031,179.261
1320714566031,179.052
1320714626031,179.055
1320714686031,179.042
1320714746031,179.019
1320714806031,178.528
1320714866031,178.775
1320714926031,178.539
1320714986031,178.626
1320715046031,178.701
1320715106031,178.495
1320715166031,178.739
1320715226031,178.218
1320715286031,178.216
1320715346031,178.604
1320715406031,179.050
1320715466031,178.720
1320715526031,178.825
1320715586031,178.823
1320715646031,178.748
1320715706031,178.493
1320715766031,178.515
1320715826031,178.678
1320715886031,178.825
1320715946031,178.686
1320716006031,178.821
1320716066031,178.386
1320716126031,178.685
1320716186031,178.403
1320716246031,178.841
1320716306031,178.969
1320716366031,178.556
1320716426031,179.005
1320716486031,178.643
1320716546031,178.802
1320716606031,178.753
1320716666031,178.872
1320716726031,178.856
1320716786031,179.025
1320716846031,178.923
1320716906031,178.767
1320716966031,178.774
1320717026031,178.723
1320717086031,178.967
1320717146031,179.274
1320717206031,178.687
1320717266031,178.902
1320717326031,179.060
1320717386031,179.003
1320717446031,179.005
1320717506031,178.640
1320717566031,179.063
1320717626041,179.871
1320717686041,179.168
1320717746041,179.280
1320717806041,179.200
1320717866041,179.132
1320717926041,178.989
1320717986041,179.291
1320718046041,179.134
1320718106041,179.267
1320718166041,179.394
1320718226041,179.551
1320718286041,179.565
1320718346041,179.295
1320718406041,179.547
1320718466041,179.156
1320718526041,179.068
1320718586041,179.191
1320718646041,178.809
1320718706041,178.719
1320718766041,179.038
1320718826041,179.249
1320718886041,179.590
1320718946041,179.326
1320719006041,179.246
1320719066041,179.372
1320719126041,179.598
1320719186041,179.116
1320719246041,179.531
1320719306041,179.494
1320719366041,179.203
1320719426041,179.557
1320719486041,179.208
1320719546041,179.439
1320719606041,179.406
1320719666041,179.530
1320719726041,179.578
1320719786041,179.444
1320719846041,179.722
1320719906041,179.770
1320719966041,179.617
1320720026041,179.656
1320720086041,179.770
1320720146041,179.599
1320720206041,179.610
1320720266041,179.636
1320720326041,179.662
1320720386041,179.617
1320720446041,179.433
1320720506041,179.654
1320720566041,179.599
1320720626041,179.195
1320720686041,179.469
1320720746041,179.365
1320720806041,179.568
1320720866041,179.475
1320720926041,179.524
1320720986041,179.574
1320721046041,179.495
1320721106041,179.448
1320721166041,179.814
1320721226050,179.127
1320721286050,179.730
1320721346050,179.422
1320721406050,179.555
1320721466050,179.576
1320721526050,179.528
1320721586050,179.700
1320721646050,179.676
1320721706050,179.692
1320721766050,179.487
1320721826050,179.978
1320721886050,179.755
1320721946050,179.952
1320722006050,179.657
1320722066050,179.769
1320722126050,180.091
1320722186050,179.747
1320722246050,179.706
1320722306050,179.515
1320722366050,180.187
1320722426050,179.911
1320722486050,180.016
1320722546050,179.851
1320722606050,180.201
1320722666050,180.188
1320722726050,179.810
1320722786050,180.029
1320722846050,179.821
1320722906050,180.101
1320722966050,180.174
1320723026050,179.530
1320723086050,179.743
1320723146050,180.006
1320723206050,179.763
1320723266050,180.127
1320723326050,180.099
1320723386050,179.979
1320723446050,179.956
1320723506050,179.867
1320723566050,179.873
1320723626050,180.019
1320723686050,179.985
1320723746050,179.824
1320723806050,180.128
1320723866050,179.941
1320723926050,179.780
1320723986050,179.685
1320724046050,179.907
1320724106050,179.850
1320724166050,179.792
1320724226050,179.995
1320724286050,180.154
1320724346050,180.197
1320724406050,179.916
1320724466050,179.628
1320724526050,180.173
1320724586050,180.227
1320724646050,179.960
1320724706050,180.104
1320724766050,179.989
1320724826060,180.021
1320724886060,179.589
1320724946060,179.880
1320725006060,179.745
1320725066060,179.712
1320725126060,179.658
1320725186060,179.841
1320725246060,179.409
1320725306060,179.355
1320725366060,179.296
1320725426060,179.397
1320725486060,179.701
1320725546060,179.409
1320725606060,179.522
1320725666060,179.540
1320725726060,179.512
1320725786060,179.469
1320725846060,179.599
1320725906060,179.569
1320725966060,179.120
1320726026060,179.546
1320726086060,179.363
1320726146060,179.720
1320726206060,179.254
1320726266060,179.659
1320726326060,179.566
1320726386060,179.574
1320726446060,179.497
1320726506060,179.716
1320726566060,179.920
1320726626060,179.535
1320726686060,179.392
1320726746060,179.290
1320726806060,179.209
1320726866060,179.502
1320726926060,179.447
1320726986060,179.414
1320727046060,179.443
1320727106060,179.023
1320727166060,179.410
1320727226060,179.184
1320727286060,179.295
1320727346060,179.779
1320727406060,179.179
1320727466060,179.479
1320727526060,179.247
1320727586060,179.257
1320727646060,179.576
1320727706060,179.497
1320727766060,179.482
1320727826060,179.208
1320727886060,179.297
1320727946060,179.118
1320728006060,179.343
1320728066060,179.083
1320728126060,179.226
1320728186060,179.162
1320728246060,179.496
1320728306060,179.357
1320728366060,179.290
1320728426070,179.182
1320728486070,179.340
1320728546070,179.404
1320728606070,179.398
1320728666070,179.454
1320728726070,179.441
1320728786070,179.329
1320728846070,179.431
1320728906070,179.007
1320728966070,179.227
1320729026070,179.615
1320729086070,179.435
1320729146070,179.348
1320729206070,179.422
1320729266070,179.272
1320729326070,179.356
1320729386070,179.283
1320729446070,179.239
1320729506070,179.287
1320729566070,179.344
1320729626070,179.099
1320729686070,179.393
1320729746070,179.044
1320729806070,179.038
1320729866070,179.032
1320729926070,178.941
1320729986070,179.389
1320730046070,179.165
1320730106070,179.048
1320730166070,179.013
1320730226070,179.115
1320730286070,178.916
1320730346070,178.999
1320730406070,179.021
1320730466070,179.145
1320730526070,178.733
1320730586070,179.123
1320730646070,178.943
1320730706070,178.928
1320730766070,178.710
1320730826070,178.823
1320730886070,178.789
1320730946070,178.971
1320731006070,178.846
1320731066070,178.447
1320731126070,179.067
1320731186070,179.303
1320731246070,179.023
1320731306070,178.893
1320731366070,179.202
1320731426070,178.864
1320731486070,178.810
1320731546070,179.292
1320731606070,179.229
1320731666070,179.194
1320731726070,179.085
1320731786070,178.941
1320731846070,178.882
1320731906070,179.241
1320731966070,178.914
1320732026080,179.199
1320732086080,178.777
1320732146080,179.092
1320732206080,179.128
1320732266080,178.886
1320732326080,178.891
1320732386080,179.280
1320732446080,178.960
1320732506080,178.669
1320732566080,178.850
1320732626080,178.609
1320732686080,179.055
1320732746080,178.968
1320732806080,179.021
1320732866080,179.059
1320732926080,178.620
1320732986080,178.943
1320733046080,179.052
1320733106080,178.967
1320733166080,179.251
1320733226080,178.941
1320733286080,178.963
1320733346080,179.028
1320733406080,178.520
1320733466080,179.167
1320733526080,178.759
1320733586080,178.935
1320733646080,178.713
1320733706080,179.343
1320733766080,178.806
1320733826080,178.986
1320733886080,178.950
1320733946080,179.242
1320734006080,178.919
1320734066080,179.041
1320734126080,179.123
1320734186080,178.972
1320734246080,178.912
1320734306080,178.865
1320734366080,178.740
1320734426080,178.876
1320734486080,178.868
1320734546080,178.932
1320734606080,178.907
1320734666080,179.064
1320734726080,179.326
1320734786080,179.166
1320734846080,179.214
1320734906080,179.098
1320734966080,179.064
1320735026080,178.893
1320735086080,179.124
1320735146080,178.771
1320735206080,178.958
1320735266080,179.399
1320735326080,179.377
1320735386080,179.187
1320735446080,178.923
1320735506080,179.175
1320735566080,179.482
1320735626090,179.329
1320735686090,178.994
1320735746090,179.240
1320735806090,179.174
1320735866090,178.824
1320735926090,179.231
1320735986090,179.009
1320736046090,179.087
1320736106090,179.091
1320736166090,179.008
1320736226090,178.992
1320736286090,178.991
1320736346090,178.769
1320736406090,178.728
1320736466090,179.034
1320736526090,179.039
1320736586090,179.206
1320736646090,178.752
1320736706090,178.844
1320736766090,179.012
1320736826090,178.709
1320736886090,178.863
1320736946090,178.844
1320737006090,178.928
1320737066090,179.122
1320737126090,178.567
1320737186090,178.920
1320737246090,178.726
1320737306090,179.132
1320737366090,179.000
1320737426090,179.004
1320737486090,178.777
1320737546090,178.466
1320737606090,179.015
1320737666090,178.633
1320737726090,178.741
1320737786090,179.026
1320737846090,178.925
1320737906090,178.936
1320737966090,178.780
1320738026090,178.872
1320738086090,178.833
1320738146090,178.834
1320738206090,178.686
1320738266090,178.489
1320738326090,178.605
1320738386090,178.829
1320738446090,178.929
1320738506090,179.182
1320738566090,178.785
1320738626090,179.182
1320738686090,178.759
1320738746090,178.605
1320738806090,179.110
1320738866090,178.961
1320738926090,179.167
1320738986090,178.998
1320739046090,179.095
1320739106090,178.925
1320739166090,179.083
1320739226100,179.015
1320739286100,178.845
1320739346100,178.964
1320739406100,178.749
1320739466100,179.156
1320739526100,178.974
1320739586100,178.810
1320739646100,178.953
1320739706100,178.694
1320739766100,178.844
1320739826100,178.514
1320739886100,178.999
1320739946100,178.704
1320740006100,178.879
1320740066100,179.218
1320740126100,179.079
1320740186100,178.994
1320740246100,179.331
1320740306100,179.017
1320740366100,179.479
1320740426100,179.182
1320740486100,179.273
1320740546100,179.182
1320740606100,178.995
1320740666100,179.252
1320740726100,179.275
1320740786100,179.710
1320740846100,179.408
1320740906100,179.400
1320740966100,179.219
1320741026100,179.538
1320741086100,179.620
1320741146100,179.671
1320741206100,179.797
1320741266100,179.054
1320741326100,179.877
1320741386100,179.641
1320741446100,180.109
1320741506100,179.949
1320741566100,179.781
1320741626100,180.141
1320741686100,179.949
1320741746100,179.787
1320741806100,179.857
1320741866100,180.292
1320741926100,180.294
1320741986100,180.080
1320742046100,179.977
1320742106100,180.416
1320742166100,180.718
1320742226100,180.359
1320742286100,180.342
1320742346100,180.399
1320742406100,180.740
1320742466100,180.697
1320742526100,180.571
1320742586100,180.523
1320742646100,180.527
1320742706100,180.566
1320742766100,180.814
1320742826111,180.576
1320742886111,181.117
1320742946111,180.906
1320743006111,180.992
1320743066111,180.633
1320743126111,180.839
1320743186111,181.079
1320743246111,180.893
1320743306111,181.254
1320743366111,181.320
1320743426111,180.903
1320743486111,181.166
1320743546111,181.319
1320743606111,181.532
1320743666111,181.082
1320743726111,180.998
1320743786111,181.256
1320743846111,181.140
1320743906111,181.021
1320743966111,181.526
1320744026111,181.513
1320744086111,181.495
1320744146111,181.224
1320744206111,181.198
1320744266111,180.911
1320744326111,180.819
1320744386111,180.785
1320744446111,181.203
1320744506111,180.994
1320744566111,180.813
1320744626111,180.714
1320744686111,180.990
1320744746111,181.088
1320744806111,181.124
1320744866111,181.099
1320744926111,181.142
1320744986111,180.904
1320745046111,180.808
1320745106111,180.964
1320745166111,181.292
1320745226111,181.040
1320745286111,181.063
1320745346111,181.171
1320745406111,181.077
1320745466111,181.288
1320745526111,181.102
1320745586111,181.206
1320745646111,181.194
1320745706111,181.233
1320745766111,181.286
1320745826111,181.290
1320745886111,181.214
1320745946111,181.495
1320746006111,181.264
1320746066111,181.555
1320746126111,181.332
1320746186111,181.477
1320746246111,181.763
1320746306111,181.613
1320746366111,181.535
1320746426122,181.347
1320746486122,181.443
1320746546122,181.265
1320746606122,181.425
1320746666122,182.130
1320746726122,181.708
1320746786122,181.688
1320746846122,181.632
1320746906122,181.685
1320746966122,182.140
1320747026122,181.811
1320747086122,181.855
1320747146122,182.085
1320747206122,181.900
1320747266122,181.917
1320747326122,181.715
1320747386122,181.900
1320747446122,181.651
1320747506122,181.827
1320747566122,181.901
1320747626122,181.811
1320747686122,181.421
1320747746122,182.081
1320747806122,181.888
1320747866122,182.078
1320747926122,182.382
1320747986122,182.169
1320748046122,182.288
1320748106122,182.411
1320748166122,181.910
1320748226122,181.986
1320748286122,182.085
1320748346122,181.804
1320748406122,182.056
1320748466122,181.976
1320748526122,182.488
1320748586122,182.075
1320748646122,182.134
1320748706122,181.928
1320748766122,182.047
1320748826122,182.126
1320748886122,182.019
1320748946122,181.906
1320749006122,182.436
1320749066122,181.951
1320749126122,182.029
1320749186122,181.790
1320749246122,181.905
1320749306122,181.911
1320749366122,182.300
1320749426122,181.843
1320749486122,181.868
1320749546122,181.551
1320749606122,181.590
1320749666122,181.616
1320749726122,181.895
1320749786122,181.477
1320749846122,181.710
1320749906122,181.483
1320749966122,181.624
1320750026133,181.669
1320750086133,181.969
1320750146133,181.605
1320750206133,181.417
1320750266133,181.678
1320750326133,181.667
1320750386133,181.595
1320750446133,181.487
1320750506133,181.526
1320750566133,182.115
1320750626133,181.470
1320750686133,181.669
1320750746133,181.378
1320750806133,181.444
1320750866133,181.449
1320750926133,181.192
1320750986133,181.075
1320751046133,181.380
1320751106133,181.282
1320751166133,181.110
1320751226133,181.207
1320751286133,181.215
1320751346133,181.516
1320751406133,181.254
1320751466133,181.123
1320751526133,181.070
1320751586133,181.361
1320751646133,181.161
1320751706133,180.977
1320751766133,181.020
1320751826133,181.313
1320751886133,181.267
1320751946133,181.665
1320752006133,181.076
1320752066133,181.213
1320752126133,180.721
1320752186133,181.534
1320752246133,181.052
1320752306133,181.108
1320752366133,181.362
1320752426133,181.044
1320752486133,181.310
1320752546133,181.180
1320752606133,180.842
1320752666133,181.327
1320752726133,181.219
1320752786133,180.928
1320752846133,181.005
1320752906133,181.009
1320752966133,181.088
1320753026133,181.006
1320753086133,180.985
1320753146133,181.035
1320753206133,180.833
1320753266133,181.071
1320753326133,181.118
1320753386133,181.014
1320753446133,180.875
1320753506133,180.729
1320753566133,181.203
1320753626144,180.940
1320753686144,180.987
1320753746144,181.105
1320753806144,181.444
1320753866144,181.170
1320753926144,180.602
1320753986144,180.832
1320754046144,181.049
1320754106144,180.930
1320754166144,181.149
1320754226144,181.169
1320754286144,180.953
1320754346144,181.158
1320754406144,181.066
1320754466144,181.031
1320754526144,181.154
1320754586144,180.995
1320754646144,180.944
1320754706144,181.032
1320754766144,180.868
1320754826144,181.146
1320754886144,181.090
1320754946144,180.759
1320755006144,180.887
1320755066144,180.876
1320755126144,180.834
1320755186144,181.054
1320755246144,181.056
1320755306144,180.872
1320755366144,181.257
1320755426144,181.108
1320755486144,181.313
1320755546144,180.945
1320755606144,181.333
1320755666144,181.109
1320755726144,181.296
1320755786144,181.234
1320755846144,181.291
1320755906144,181.167
1320755966144,181.399
1320756026144,181.448
1320756086144,181.227
1320756146144,181.346
1320756206144,181.588
1320756266144,181.470
1320756326144,181.695
1320756386144,181.386
1320756446144,181.436
1320756506144,181.460
1320756566144,181.489
1320756626144,181.533
1320756686144,181.781
1320756746144,181.589
1320756806144,181.783
1320756866144,181.854
1320756926144,181.758
1320756986144,181.683
1320757046144,181.940
1320757106144,181.506
1320757166144,181.749
1320757226156,181.905
1320757286156,181.855
1320757346156,182.165
1320757406156,181.833
1320757466156,181.885
1320757526156,182.224
1320757586156,182.135
1320757646156,181.952
1320757706156,181.717
1320757766156,181.853
1320757826156,182.191
1320757886156,182.106
1320757946156,182.069
1320758006156,182.117
1320758066156,182.038
1320758126156,181.680
1320758186156,181.996
1320758246156,181.982
1320758306156,181.927
1320758366156,181.912
1320758426156,181.832
1320758486156,182.083
1320758546156,181.870
1320758606156,182.120
1320758666156,181.702
1320758726156,181.657
1320758786156,182.051
1320758846156,181.906
1320758906156,181.607
1320758966156,181.815
1320759026156,181.600
1320759086156,181.781
1320759146156,181.975
1320759206156,181.732
1320759266156,181.797
1320759326156,181.718
1320759386156,181.932
1320759446156,181.566
1320759506156,181.833
1320759566156,181.863
1320759626156,181.712
1320759686156,181.511
1320759746156,181.586
1320759806156,181.920
1320759866156,181.757
1320759926156,181.949
1320759986156,181.800
1320760046156,182.009
1320760106156,182.126
1320760166156,181.919
1320760226156,182.064
1320760286156,182.013
1320760346156,181.982
1320760406156,181.918
1320760466156,182.044
1320760526156,182.147
1320760586156,182.016
1320760646156,182.107
1320760706156,182.021
1320760766156,181.961
1320760826167,182.121
1320760886167,181.949
1320760946167,182.147
1320761006167,182.221
1320761066167,181.987
1320761126167,182.103
1320761186167,182.165
1320761246167,182.207
1320761306167,182.245
1320761366167,182.129
1320761426167,182.213
1320761486167,182.162
1320761546167,182.032
1320761606167,181.784
1320761666167,182.136
1320761726167,182.146
1320761786167,182.382
1320761846167,182.249
1320761906167,182.515
1320761966167,182.202
1320762026167,182.345
1320762086167,181.967
1320762146167,182.382
1320762206167,182.268
1320762266167,182.748
1320762326167,182.674
1320762386167,182.049
1320762446167,182.315
1320762506167,182.297
1320762566167,182.156
1320762626167,182.285
1320762686167,181.670
1320762746167,182.138
1320762806167,182.090
1320762866167,182.085
1320762926167,182.009
1320762986167,182.084
1320763046167,181.784
1320763106167,181.685
1320763166167,182.105
1320763226167,182.401
1320763286167,181.780
1320763346167,182.342
1320763406167,182.056
1320763466167,181.997
1320763526167,181.751
1320763586167,181.949
1320763646167,181.498
1320763706167,181.797
1320763766167,181.372
1320763826167,181.655
1320763886167,181.692
1320763946167,181.623
1320764006167,181.679
1320764066167,181.764
1320764126167,181.913
1320764186167,181.756
1320764246167,181.725
1320764306167,181.600
1320764366167,181.739
1320764426179,181.681
1320764486179,181.551
1320764546179,181.416
1320764606179,181.342
1320764666179,181.590
1320764726179,181.049
1320764786179,181.342
1320764846179,181.155
1320764906179,181.351
1320764966179,181.510
1320765026179,181.064
1320765086179,181.145
1320765626179,181.371
1320765686179,177.990
1320765746179,181.378
1320765806179,181.019
1320765866179,181.317
1320765926179,181.172
1320765986179,181.142
1320766046179,181.755
1320766106179,181.274
1320766166179,181.375
1320766226179,181.252
1320766286179,181.133
1320766346179,181.266
1320766406179,180.938
1320766466179,181.388
1320766526179,181.302
1320766586179,181.569
1320766646179,181.324
1320766706179,181.218
1320766766179,181.136
1320766826179,181.204
1320766886179,181.307
1320766946179,181.545
1320767006179,181.651
1320767066179,181.563
1320767126179,181.835
1320767186179,181.123
1320767246179,181.491
1320767306179,181.606
1320767366179,181.261
1320767426179,181.365
1320767486179,181.105
1320767546179,181.438
1320767606179,181.086
1320767666179,181.748
1320767726179,181.331
1320767786179,181.486
1320767846179,181.255
1320767906179,181.369
1320767966179,181.247
1320768026191,181.484
1320768086191,181.391
1320768146191,181.518
1320768206191,181.386
1320768266191,181.059
1320768326191,181.112
1320768386191,181.037
1320768446191,181.390
1320768506191,181.300
1320768566191,181.309
1320768626191,181.015
1320768686191,181.480
1320768746191,181.484
1320768806191,181.456
1320768866191,181.455
1320768926191,181.484
1320768986191,181.301
1320769046191,181.128
1320769106191,181.460
1320769166191,181.524
1320769226191,181.558
1320769286191,181.281
1320769346191,181.377
1320769406191,181.448
1320769466191,181.490
1320769526191,181.429
1320769586191,181.512
1320769646191,181.172
1320769706191,181.177
1320769766191,181.246
1320769826191,181.562
1320769886191,181.214
1320769946191,181.748
1320770006191,181.333
1320770066191,181.403
1320770126191,181.526
1320770186191,181.553
1320770246191,181.283
1320770306191,181.341
1320770366191,181.683
1320770426191,181.410
1320770486191,181.407
1320770546191,181.685
1320770606191,181.238
1320770666191,181.674
1320770726191,181.333
1320770786191,181.662
1320770846191,181.523
1320770906191,181.305
1320770966191,181.649
1320771026191,181.678
1320771086191,181.773
1320771146191,181.561
1320771206191,181.404
1320771266191,181.808
1320771326191,181.433
1320771386191,181.876
1320771446191,181.408
1320771506191,181.593
1320771566191,181.742
1320771626203,181.973
1320771686203,181.517
1320771746203,181.501
1320771806202,181.553
1320771866202,181.545
1320771926202,181.407
1320771986202,182.229
1320772046202,181.776
1320772106202,181.669
1320772166202,181.489
1320772226202,181.984
1320772286202,181.912
1320772346202,181.586
1320772406202,181.910
1320772466202,181.443
1320772526202,181.446
1320772586202,181.264
1320772646202,181.303
1320772706202,181.407
1320772766202,181.600
1320772826202,181.616
1320772886203,181.733
1320772946203,181.800
1320773006203,181.782
1320773066203,181.841
1320773126203,181.629
1320773186202,181.787
1320773246202,181.733
1320773306202,181.417
1320773366202,181.742
1320773426202,181.774
1320773486202,181.681
1320773546202,181.722
1320773606202,181.580
1320773666202,181.669
1320773726202,181.876
1320773786202,181.453
1320773846202,181.676
1320773906202,182.029
1320773966202,181.863
1320774026202,181.973
1320774086202,181.993
1320774146202,181.880
1320774206202,182.116
1320774266203,182.068
1320774326203,182.129
1320774386203,182.227
1320774446203,182.031
1320774506202,181.806
1320774566202,182.273
1320774626202,182.031
1320774686202,181.806
1320774746202,181.862
1320774806202,181.998
1320774866202,181.866
1320774926202,181.900
1320774986202,182.523
1320775046202,181.983
1320775106202,182.271
1320775166202,181.941
1320775226214,182.238
1320775286214,182.161
1320775346214,182.151
1320775406214,182.241
1320775466214,181.926
1320775526214,182.214
1320775586214,182.047
1320775646214,182.294
1320775706214,182.288
1320775766214,182.019
1320775826214,182.154
1320775886214,182.371
1320775946214,181.929
1320776006214,182.153
1320776066214,182.165
1320776126214,182.310
1320776186214,182.072
1320776246214,182.316